Location: Ernez
(36.4595°N, 29.8755°E)
Time: 08:08:11
(UTC+00:00)

USA 281 - Pass Details

Date: 13 November 2025
Orbit: 1079 x 1080 km, 106.0° (Epoch: 27 November)

Event Time Altitude Azimuth Distance (km) Brightness Sun altitude
Exits shadow 17:03:19 37° 28° (NNE) 1,626 3.9 -26.2°
Drops below altitude 10° 17:07:52 10° 352° (N) 2,926 5.5 -27.1°
Sets 17:10:31 0° 346° (NNW) 3,885 6.3 -27.7°
